Home   Weather   Plano   Past weeks

Flag for USA Past Weather in Plano, Texas, USA — Yesterday and Last 2 Weeks

Now
47 °F

Sunny.


Feels Like: 47 °F
Forecast: 39 / 63 °F
Wind: No wind

Location: McKinney Municipal Airport

Current Time: Jan 23, 2017 at 11:11:34 am

Latest Report: Jan 23, 2017 at 9:53 am


Visibility: 10 mi

Pressure: 30.01 "Hg

Humidity: 64%

Dew Point: 35 °F

Location of PlanoLocation

Past Weather in Plano — Graph

°F

Plano Temperature Yesterday

Maximum temperature yesterday: 63 °F (at 3:53 pm)
Minimum temperature yesterday: 48 °F (at 6:53 am)
Average temperature yesterday: 54 °F

High & Low Weather Summary for the Past Weeks

 TemperatureHumidityPressure
High77 °F (Jan 11, 2:53 pm)100% (Jan 13, 2:32 pm)30.75 "Hg (Jan 13, 2:32 pm)
Low32 °F (Jan 8, 11:53 pm)21% (Jan 8, 3:53 pm)29.40 "Hg (Jan 22, 12:53 am)
Average52 °F82%30.02 "Hg
* Reported Jan 8 9:53 am — Jan 23 9:53 am, Plano, Weather by CustomWeather, © 2017

Note: Actual official high and low records may vary slightly from our data, if they occured in-between our weather recording intervals... More about our weather records

Advertising

Plano Weather History for the Previous 24 Hours

Scroll right to see more
 ConditionsComfort  
Time TempWeatherWind HumidityBarometerVisibility
9:53 am
Mon, Jan 23
47 °FSunny.No wind64%30.01 "Hg10 mi
8:53 am44 °FSunny.5 mph71%30.02 "Hg10 mi
7:53 am38 °FSunny.8 mph83%30.02 "Hg10 mi
6:53 am37 °FClear.5 mph82%30.00 "Hg10 mi
5:53 am39 °FClear.5 mph76%29.97 "Hg10 mi
4:53 am38 °FClear.5 mph79%29.97 "Hg10 mi
3:53 am42 °FClear.8 mph73%29.96 "Hg10 mi
2:53 am44 °FClear.8 mph68%29.98 "Hg10 mi
1:53 am46 °FClear.9 mph66%29.98 "Hg10 mi
12:53 am47 °FClear.9 mph64%29.97 "Hg10 mi
11:53 pm
Sun, Jan 22
49 °FClear.13 mph59%29.96 "Hg10 mi
10:53 pm50 °FClear.14 mph59%29.95 "Hg10 mi
9:53 pm51 °FClear.13 mph56%29.93 "Hg10 mi
8:53 pm54 °FClear.14 mph51%29.90 "Hg10 mi
7:53 pm55 °FClear.14 mph51%29.88 "Hg10 mi
6:53 pm56 °FClear.14 mph51%29.86 "Hg10 mi
5:53 pm59 °FClear.22 mph46%29.81 "Hg10 mi
4:53 pm61 °FSunny.25 mph41%29.76 "Hg10 mi
3:53 pm63 °FSunny.26 mph41%29.72 "Hg10 mi
2:53 pm62 °FPassing clouds.31 mph46%29.68 "Hg10 mi
1:53 pm59 °FPartly sunny.21 mph62%29.67 "Hg10 mi
1:00 pm56 °FOvercast.16 mph72%29.64 "Hg10 mi
12:02 pm55 °FMostly cloudy.20 mph74%29.64 "Hg10 mi
11:53 am55 °FMostly cloudy.22 mph74%29.65 "Hg10 mi
Weather by CustomWeather, © 2017

See weather overviewHow to use our weather pages